Wind_Speed
9 10 9 8 8 8 8 8 9 8 8 8 8 7 6 5 5 5 5 5 5 4 4 3 2 3 3 3 3 5 5 6 6 6 7 7 7 6 6 7 6 6 7
9 9 9 8 7 8 8 8 9 9 9 8 8 7 6 6 6 6 6 6 5 5 4 4 3 3 3 2 3 3 4 5 6 5 6 6 6 7 7 7 6 6 6
10 9 8 7 7 7 8 8 9 9 8 7 7 7 7 6 6 6 7 7 6 6 5 5 4 3 3 3 3 3 3 4 4 4 5 5 6 7 7 6 5 6 6
9 9 8 7 7 7 7 8 9 8 8 7 7 7 6 6 6 7 7 7 6 6 6 5 5 4 3 3 3 2 2 4 3 5 5 5 6 6 7 6 5 5 6
9 8 8 7 7 7 7 8 8 8 7 7 7 7 6 6 7 7 7 6 5 5 6 5 4 4 3 3 3 3 3 4 4 5 5 5 6 6 5 6 5 4 5
9 8 7 7 7 7 7 8 7 7 7 7 7 7 7 7 7 6 6 4 2 4 4 4 4 4 3 3 3 4 4 4 4 5 5 5 6 6 5 5 4 4 5
8 8 7 7 7 8 7 8 7 7 7 6 6 7 6 7 7 6 5 4 2 1 2 3 4 3 3 3 3 4 4 4 4 4 4 5 6 6 5 4 4 5 5
8 8 7 7 7 7 7 8 8 7 7 6 7 7 7 7 7 6 6 4 3 1 2 2 2 3 3 3 3 3 4 4 4 5 4 5 5 4 5 4 4 4 4
7 8 8 8 7 8 8 8 8 8 7 7 7 7 7 7 7 6 5 4 3 2 2 2 2 2 3 3 4 4 4 5 5 5 5 4 4 4 4 4 3 3 4
8 8 8 8 9 9 9 9 9 8 7 7 7 7 7 7 7 6 5 3 3 3 3 2 2 3 3 4 4 5 4 4 4 5 5 5 4 3 3 3 3 3 4
8 9 9 9 9 9 10 10 9 8 7 7 7 7 7 7 7 6 5 3 3 4 4 4 4 3 3 4 4 5 5 4 4 5 5 5 4 4 3 4 4 4 4
9 9 9 9 9 9 9 9 9 9 8 7 7 7 7 8 7 6 6 4 4 5 4 4 4 4 4 5 6 6 5 5 5 5 5 5 5 4 4 5 5 5 4
9 9 9 9 9 9 9 9 10 9 9 8 8 7 7 7 8 7 6 5 5 5 5 5 5 5 5 6 6 6 6 6 6 6 5 5 5 5 4 5 5 5 5
10 10 10 10 9 9 9 10 10 10 9 9 8 7 8 7 7 8 7 6 4 4 5 5 5 5 6 6 6 7 7 8 7 6 6 5 5 5 5 5 5 5 5
10 10 10 10 9 9 10 10 10 10 9 8 8 8 8 8 8 7 7 6 5 5 4 5 6 5 5 6 7 7 7 8 7 7 6 6 6 6 6 5 5 6 6
11 10 10 10 9 9 10 10 10 10 9 9 9 9 8 8 8 8 7 6 5 5 5 5 5 5 6 6 6 7 7 8 8 8 8 7 7 7 7 6 6 6 6
11 10 10 11 11 10 10 9 10 10 10 10 10 9 9 8 8 8 7 7 6 6 5 5 5 5 6 6 5 6 7 7 8 8 8 8 7 7 7 7 7 7 7
11 10 10 11 11 11 11 10 10 10 11 10 10 10 10 9 9 8 7 7 7 7 5 5 5 5 5 5 5 5 6 6 7 8 8 8 8 8 8 7 7 7 7
13 12 11 11 11 11 11 11 11 11 11 11 11 11 10 10 10 9 8 7 7 7 6 6 6 5 5 5 6 6 6 7 7 7 8 8 8 8 8 8 8 8 8
15 14 13 13 12 12 12 12 12 11 11 11 11 11 11 11 10 9 9 8 8 7 7 6 6 6 5 5 6 6 7 7 7 8 8 8 8 8 9 8 8 8 8
16 16 17 15 13 13 12 13 13 12 12 12 12 11 11 11 10 10 10 9 9 8 7 7 7 7 6 6 6 7 7 7 7 8 8 9 9 9 9 9 9 9 9
16 17 17 16 14 14 13 13 13 13 13 13 13 12 12 12 11 11 10 10 9 9 8 8 7 7 7 7 7 7 7 7 7 8 9 10 10 10 10 10 10 10 10
16 18 18 17 16 15 14 14 14 14 14 14 13 13 13 13 12 12 11 11 11 10 9 9 8 8 8 8 8 8 8 8 8 8 9 10 11 11 11 11 11 11 11
17 18 18 17 16 15 15 15 15 15 15 15 14 14 14 14 13 13 13 12 12 12 11 10 10 10 9 9 9 9 9 9 9 9 10 10 11 12 12 12 12 12 12
18 19 19 18 17 16 16 16 16 16 16 16 15 15 14 14 14 14 14 13 13 13 12 12 11 11 11 10 10 11 11 11 11 11 11 12 12 12 12 12 12 13 12
19 19 19 18 17 17 17 17 17 17 17 17 17 16 15 15 15 14 14 14 14 13 13 13 13 12 12 11 11 12 12 12 12 12 13 13 13 13 13 13 13 13 13
Wind_Direction
7 4 2 0 360 359 2 2 359 351 347 340 338 333 331 326 319 311 305 302 293 280 268 258 262 245 234 229 213 201 200 195 191 186 188 188 190 194 194 192 193 195 197
4 3 0 359 358 358 360 358 354 349 340 334 333 335 331 322 316 308 303 300 290 279 272 263 264 261 251 242 213 211 207 198 195 191 184 185 187 193 188 189 192 191 193
0 359 358 357 359 359 358 358 354 348 342 335 336 336 331 324 319 310 298 289 276 268 265 262 259 254 258 249 230 235 218 211 204 199 197 200 197 195 188 186 191 195 195
356 353 355 351 352 354 355 355 354 351 346 340 340 337 332 327 322 310 303 292 276 265 261 258 253 250 249 233 226 224 221 212 208 198 190 191 190 191 190 190 193 198 201
350 349 351 352 349 349 349 350 352 351 348 345 343 337 332 330 323 316 315 306 270 254 251 251 243 237 230 216 213 198 190 190 190 183 184 191 188 181 181 189 199 199 205
345 345 346 351 351 349 346 347 350 352 350 349 347 339 332 329 325 324 329 329 285 237 240 240 238 231 221 209 201 190 200 194 188 181 178 181 182 184 192 200 206 210 206
344 342 344 350 348 344 343 344 345 348 349 349 346 340 335 331 324 323 326 340 332 268 223 224 231 224 216 212 206 188 195 195 189 180 178 182 186 192 206 213 213 211 216
341 343 348 348 349 346 342 343 341 344 344 344 344 340 338 336 329 324 323 337 328 257 216 233 234 215 219 211 205 197 193 189 184 182 182 186 186 192 199 214 211 213 214
335 340 347 347 347 345 341 339 338 340 340 338 340 338 336 333 329 322 322 323 315 308 284 262 253 241 224 208 204 201 198 195 191 198 198 197 199 197 203 215 212 206 217
335 338 339 342 341 338 339 340 338 337 335 332 335 332 332 331 324 317 318 312 303 300 290 271 261 261 244 218 211 209 208 207 207 204 200 198 201 206 206 215 217 211 213
333 336 333 332 336 342 339 340 338 338 332 327 328 329 328 328 324 321 320 300 284 289 290 276 271 263 247 229 225 224 218 222 222 216 206 209 218 225 230 225 224 220 217
327 334 336 334 334 337 336 336 335 336 334 327 325 328 328 327 321 317 315 298 276 271 273 270 269 260 246 241 240 236 230 229 223 219 215 214 226 235 242 233 224 221 221
322 326 332 332 331 333 335 335 334 335 338 336 328 329 328 327 324 315 310 303 287 271 260 253 262 254 246 237 233 235 232 231 230 228 225 227 230 236 240 236 231 228 222
316 318 322 326 327 329 332 334 334 333 333 335 335 329 328 328 325 321 312 303 293 275 258 248 248 248 246 239 239 236 235 237 235 232 229 231 233 237 237 237 235 230 226
311 312 314 316 321 324 329 331 331 331 332 334 335 329 322 324 323 319 319 310 295 280 268 262 255 257 254 247 240 239 237 234 237 237 235 235 236 238 240 233 230 230 234
305 304 305 307 311 316 322 326 327 329 330 332 331 330 319 317 318 315 314 312 295 283 271 259 256 252 253 249 241 239 235 236 241 241 241 239 236 242 242 236 232 232 235
302 304 304 304 306 309 314 318 321 324 324 326 327 328 321 316 316 315 308 307 299 291 275 256 256 258 249 246 247 246 242 244 243 242 242 242 246 245 243 240 234 234 233
299 301 300 301 303 304 307 308 311 315 318 320 322 323 323 319 314 311 306 303 298 288 275 267 266 261 263 260 254 251 249 247 246 243 241 242 246 247 243 241 240 237 237
294 292 293 297 302 302 304 308 309 310 313 313 314 314 319 321 313 308 303 296 294 289 283 278 275 268 268 266 258 257 255 251 248 242 243 248 248 245 242 242 242 246 250
293 294 294 298 297 300 302 302 302 303 305 306 304 306 310 314 313 306 301 294 292 289 283 279 275 273 271 267 268 266 264 256 249 247 250 251 250 245 243 243 243 252 258
292 294 296 291 291 294 298 299 297 298 300 302 299 300 304 307 305 303 299 293 288 283 276 275 272 270 270 271 272 270 268 259 254 252 252 252 250 247 246 246 246 250 254
289 293 292 292 290 291 292 293 292 293 295 297 293 294 298 300 298 296 293 288 283 276 275 273 268 268 271 271 269 268 267 262 263 257 254 249 246 247 247 248 250 253 253
290 290 288 285 286 287 288 288 286 289 291 293 295 296 296 294 290 288 287 284 279 274 272 271 267 267 272 269 266 264 262 263 262 261 255 248 246 247 250 251 252 254 254
288 288 288 285 285 287 286 285 286 287 288 289 292 293 295 292 287 283 283 282 276 270 266 267 268 265 265 265 266 263 259 261 262 261 259 252 248 250 253 254 253 253 255
287 287 287 285 286 284 282 282 284 285 285 286 287 287 290 292 289 280 278 278 274 269 265 266 270 267 263 265 268 265 261 262 265 264 261 255 253 253 255 258 257 254 254
284 283 284 285 284 281 279 279 280 283 283 283 285 285 286 287 287 284 278 274 272 267 265 266 267 264 265 265 266 266 264 264 264 264 260 256 255 255 255 258 258 256 257
Height
5895 5893 5892 5891 5890 5889 5888 5886 5886 5884 5884 5883 5882 5881 5880 5879 5878 5877 5876 5875 5874 5874 5874 5874 5873 5873 5873 5873 5873 5873 5873 5873 5873 5874 5875 5876 5877 5877 5878 5878 5879 5880 5880
5895 5893 5892 5891 5890 5889 5888 5887 5886 5884 5883 5882 5881 5880 5879 5879 5877 5876 5875 5874 5873 5873 5873 5873 5873 5873 5873 5872 5872 5872 5872 5873 5873 5874 5875 5876 5876 5877 5878 5878 5879 5879 5879
5895 5894 5892 5891 5890 5889 5888 5887 5885 5884 5883 5882 5881 5880 5879 5878 5876 5875 5873 5872 5871 5871 5871 5872 5872 5872 5872 5872 5872 5872 5872 5872 5873 5873 5874 5875 5876 5877 5877 5878 5878 5879 5879
5895 5894 5892 5891 5890 5889 5888 5886 5885 5884 5883 5881 5880 5879 5878 5877 5875 5873 5871 5869 5869 5869 5870 5871 5872 5872 5872 5872 5872 5872 5872 5872 5872 5872 5873 5874 5875 5876 5877 5877 5878 5878 5879
5895 5894 5892 5891 5890 5889 5887 5886 5885 5883 5882 5881 5880 5879 5878 5876 5874 5872 5869 5865 5865 5866 5868 5870 5871 5871 5871 5872 5872 5872 5872 5872 5872 5872 5873 5874 5875 5876 5877 5877 5878 5878 5878
5894 5893 5892 5891 5889 5888 5887 5886 5884 5883 5882 5880 5879 5878 5877 5876 5874 5872 5868 5865 5864 5865 5867 5869 5870 5870 5871 5871 5871 5872 5872 5872 5872 5873 5873 5874 5875 5876 5877 5877 5878 5878 5878
5894 5893 5891 5890 5889 5888 5887 5886 5884 5883 5881 5880 5879 5878 5876 5875 5874 5872 5869 5867 5866 5866 5867 5868 5869 5870 5870 5871 5871 5871 5871 5872 5872 5873 5874 5874 5875 5876 5876 5877 5877 5877 5877
5893 5892 5891 5890 5889 5887 5886 5885 5884 5882 5881 5880 5879 5877 5876 5874 5873 5872 5870 5869 5867 5867 5868 5868 5869 5869 5870 5870 5871 5871 5871 5872 5873 5873 5874 5874 5875 5875 5876 5876 5876 5877 5877
5893 5892 5891 5889 5888 5887 5886 5884 5883 5882 5881 5879 5878 5877 5875 5874 5873 5872 5870 5869 5868 5868 5868 5869 5869 5869 5870 5870 5870 5871 5871 5872 5873 5873 5873 5874 5874 5875 5875 5876 5876 5876 5876
5893 5891 5890 5889 5887 5886 5885 5884 5882 5881 5880 5878 5877 5876 5875 5873 5872 5871 5870 5869 5869 5868 5868 5869 5869 5869 5869 5870 5870 5870 5871 5871 5872 5873 5873 5874 5874 5874 5875 5875 5875 5875 5876
5891 5890 5889 5888 5887 5885 5884 5883 5882 5880 5879 5877 5876 5875 5874 5873 5871 5870 5869 5868 5868 5868 5868 5868 5868 5868 5869 5869 5869 5870 5871 5871 5871 5872 5872 5873 5873 5874 5874 5874 5874 5875 5875
5890 5889 5888 5887 5885 5884 5883 5882 5881 5879 5877 5876 5875 5874 5873 5872 5871 5870 5869 5867 5867 5867 5867 5867 5867 5867 5868 5868 5868 5869 5870 5870 5871 5871 5872 5872 5873 5873 5873 5873 5873 5874 5874
5889 5888 5887 5886 5884 5883 5882 5881 5879 5878 5876 5875 5874 5873 5872 5871 5870 5869 5868 5867 5866 5866 5866 5866 5866 5866 5867 5867 5867 5868 5868 5869 5870 5870 5871 5871 5871 5872 5872 5872 5872 5873 5873
5887 5886 5885 5884 5883 5882 5881 5879 5878 5877 5875 5874 5873 5872 5871 5870 5869 5868 5867 5866 5865 5865 5865 5865 5865 5865 5866 5866 5866 5867 5867 5868 5869 5869 5870 5870 5870 5871 5871 5871 5871 5871 5872
5886 5884 5883 5882 5881 5880 5879 5878 5877 5876 5874 5873 5872 5871 5870 5869 5868 5867 5866 5865 5864 5863 5863 5864 5864 5864 5864 5864 5865 5866 5866 5867 5867 5868 5868 5868 5869 5869 5869 5869 5870 5870 5870
5883 5882 5881 5880 5879 5878 5877 5876 5875 5874 5873 5871 5871 5870 5869 5868 5866 5865 5864 5863 5863 5862 5862 5862 5863 5863 5863 5863 5864 5864 5865 5865 5865 5866 5866 5867 5867 5868 5868 5868 5868 5868 5869
5880 5879 5878 5877 5877 5876 5875 5874 5873 5872 5871 5870 5869 5868 5867 5866 5865 5864 5863 5862 5861 5861 5860 5861 5861 5861 5861 5862 5862 5862 5863 5863 5864 5864 5865 5865 5865 5866 5866 5866 5867 5867 5867
5876 5876 5876 5875 5874 5874 5873 5872 5871 5870 5869 5868 5867 5866 5865 5864 5863 5862 5861 5861 5860 5859 5859 5859 5860 5860 5860 5860 5861 5861 5861 5861 5861 5862 5862 5863 5863 5864 5864 5864 5865 5865 5865
5874 5873 5873 5872 5872 5871 5870 5869 5869 5868 5867 5866 5865 5864 5863 5862 5861 5860 5859 5859 5859 5858 5858 5858 5858 5858 5858 5858 5859 5859 5859 5859 5860 5860 5860 5861 5861 5861 5862 5862 5863 5863 5863
5871 5870 5870 5869 5868 5867 5867 5866 5866 5865 5865 5864 5863 5862 5861 5860 5859 5858 5858 5857 5857 5856 5856 5856 5856 5856 5857 5857 5857 5857 5858 5858 5858 5858 5858 5858 5859 5859 5860 5860 5861 5861 5861
5869 5868 5867 5865 5865 5864 5863 5863 5863 5862 5862 5861 5860 5859 5858 5857 5856 5856 5855 5855 5854 5854 5854 5854 5854 5854 5855 5855 5855 5855 5855 5855 5856 5856 5856 5856 5857 5857 5858 5858 5858 5859 5859
5865 5864 5863 5862 5861 5860 5860 5860 5860 5859 5858 5858 5857 5856 5855 5854 5853 5853 5853 5852 5852 5852 5852 5852 5852 5852 5852 5853 5853 5853 5853 5854 5854 5854 5854 5854 5854 5855 5855 5856 5856 5856 5856
5861 5861 5859 5858 5858 5857 5857 5857 5856 5855 5855 5854 5854 5853 5852 5851 5851 5850 5849 5849 5849 5849 5849 5849 5849 5850 5850 5850 5851 5851 5851 5851 5851 5852 5852 5852 5852 5852 5852 5853 5853 5853 5853
5857 5857 5856 5854 5854 5853 5853 5853 5852 5852 5851 5850 5850 5849 5848 5847 5847 5847 5846 5846 5846 5846 5846 5846 5846 5847 5847 5847 5848 5848 5848 5849 5849 5849 5849 5849 5849 5849 5849 5850 5850 5850 5850
5853 5852 5851 5850 5850 5849 5849 5849 5848 5847 5847 5846 5846 5845 5844 5843 5843 5843 5842 5842 5842 5842 5843 5843 5843 5843 5844 5844 5844 5844 5845 5845 5846 5846 5846 5846 5846 5846 5846 5846 5846 5846 5847
5848 5847 5846 5845 5845 5845 5844 5844 5844 5843 5842 5842 5841 5841 5840 5839 5839 5839 5838 5838 5838 5838 5839 5839 5840 5840 5840 5840 5841 5841 5841 5841 5842 5842 5842 5842 5843 5843 5843 5843 5843 5843 5844